Location: Newark
(3.1475°N, 101.6933°E)
Time: 04:09:09
(UTC+00:00)

Envisat - Pass Details

Date: 24 September 2019
Orbit: 764 x 766 km, 98.1° (Epoch: 18 October)

Event Time Altitude Azimuth Distance (km) Brightness Sun altitude
Rises 11:41:36 0° 166° (SSE) 3,228 6.1 -9.1°
Reaches altitude 10° 11:43:55 10° 165° (SSE) 2,301 5.3 -9.6°
Maximum altitude 11:48:59 80° 78° (ENE) 779 2.9 -10.9°
Drops below altitude 10° 11:54:02 10° 351° (N) 2,293 5.6 -12.2°
Sets 11:56:20 0° 350° (N) 3,217 6.4 -12.8°
